HARMALA Weather Reports


Display with metric or nautical units.
time (UTC)temp
F
wind
direction
speed
MPH
gust
MPH
rain 1hr
in
rain 24hr
in
rain mn
in
humidity
%
barometer
mb
20260903100442 65 0.0 0.0 0.00 0.00 0.00 58 1003.3
20260903090441 61 0.0 0.0 0.00 0.00 0.00 69 1003.7
20260903074441 60 0.0 0.0 0.00 0.00 0.00 77 1003.7
20260903072440 59 0.0 0.0 0.00 0.00 0.00 79 1003.7
20260903070440 59 0.0 0.0 0.00 0.00 0.00 81 1003.8
20260903064441 59 0.0 0.0 0.00 0.00 0.00 82 1003.8
20260903062439 58 0.0 0.0 0.00 0.00 0.00 82 1003.8
20260903054440 58 0.0 0.0 0.00 0.00 0.00 87 1004.0
20260903052440 57 0.0 0.0 0.00 0.00 0.00 90 1004.1
20260903050440 56 0.0 0.0 0.00 0.00 0.00 95 1004.2
20260903044440 55 0.0 0.0 0.00 0.00 0.00 98 1004.2
20260903042441 54 0.0 0.0 0.00 0.00 0.00 99 1004.1
20260903040440 54 0.0 0.0 0.00 0.00 0.00 99 1004.2
20260903032111 55 0.0 0.0 0.00 0.00 0.00 98 1004.3
20260903030439 55 0.0 0.0 0.00 0.00 0.00 98 1004.2
20260903024439 56 0.0 0.0 0.00 0.00 0.00 96 1004.3
20260903022441 56 0.0 0.0 0.00 0.00 0.00 97 1004.4
20260903020441 56 0.0 0.0 0.00 0.00 0.00 95 1004.5
20260903014441 57 0.0 0.0 0.00 0.00 0.00 95 1004.5
20260903012440 57 0.0 0.0 0.00 0.00 0.00 97 1004.7
20260903002441 57 0.0 0.0 0.00 0.00 0.00 95 1005.0
20260903000440 57 0.0 0.0 0.00 0.00 0.00 96 1005.2
20260902234442 56 0.0 0.0 0.00 0.00 0.00 97 1005.3
20260902232440 55 0.0 0.0 0.00 0.00 0.00 99 1005.2
20260902230441 53 0.0 0.0 0.00 0.00 0.00 98 1005.4
20260902224442 52 0.0 0.0 0.00 0.00 0.00 98 1005.5
20260902220441 53 0.0 0.0 0.00 0.00 0.00 97 1005.7
20260902214440 53 0.0 0.0 0.00 0.00 0.00 96 1005.8
20260902212439 55 0.0 0.0 0.00 0.00 0.00 95 1006.0
20260902204438 54 0.0 0.0 0.00 0.00 0.00 95 1006.0
20260902202438 55 0.0 0.0 0.00 0.00 0.00 95 1006.1
20260902200437 55 0.0 0.0 0.00 0.00 0.00 94 1006.1
20260902194437 55 0.0 0.0 0.00 0.00 0.00 93 1006.2
20260902192439 55 0.0 0.0 0.00 0.00 0.00 93 1006.1
20260902190439 56 0.0 0.0 0.00 0.00 0.00 90 1006.0
20260902184439 56 0.0 0.0 0.00 0.00 0.00 92 1006.1
20260902182437 57 0.0 0.0 0.00 0.00 0.00 91 1006.1
20260902180437 58 0.0 0.0 0.00 0.00 0.00 90 1006.1
20260902174438 60 0.0 0.0 0.00 0.00 0.00 86 1006.0
20260902172437 62 0.0 0.0 0.00 0.00 0.00 78 1005.9
20260902170439 64 0.0 0.0 0.00 0.00 0.00 76 1005.8
20260902164437 65 0.0 0.0 0.00 0.00 0.00 72 1005.7
20260902162438 66 0.0 0.0 0.00 0.00 0.00 68 1005.7
20260902160437 67 0.0 0.0 0.00 0.00 0.00 63 1005.8
20260902154438 67 0.0 0.0 0.00 0.00 0.00 62 1005.9
20260902150438 68 0.0 0.0 0.00 0.00 0.00 59 1006.0
20260902144436 67 0.0 0.0 0.00 0.00 0.00 58 1006.1
20260902142438 68 0.0 0.0 0.00 0.00 0.00 53 1006.1
20260902140438 69 0.0 0.0 0.00 0.00 0.00 52 1006.1
20260902134436 69 0.0 0.0 0.00 0.00 0.00 53 1006.2
20260902132436 69 0.0 0.0 0.00 0.00 0.00 54 1006.3
20260902130437 68 0.0 0.0 0.00 0.00 0.00 54 1006.5
20260902124438 69 0.0 0.0 0.00 0.00 0.00 53 1006.5
20260902122435 69 0.0 0.0 0.00 0.00 0.00 50 1006.6
20260902120436 69 0.0 0.0 0.00 0.00 0.00 50 1006.7
20260902114436 68 0.0 0.0 0.00 0.00 0.00 52 1006.9
20260902112438 68 0.0 0.0 0.00 0.00 0.00 54 1007.0
20260902110436 67 0.0 0.0 0.00 0.00 0.00 54 1007.1
20260902104436 66 0.0 0.0 0.00 0.00 0.00 53 1007.2
20260902102436 66 0.0 0.0 0.00 0.00 0.00 55 1007.2